Time,TemperatureF,DewpointF,PressureIn,WindDirection,WindDirectionDegrees,WindSpeedMPH,WindSpeedGustMPH,Humidity,HourlyPrecipIn,Conditions,Clouds,dailyrainin,SoftwareType,DateUTC
2013-03-19 00:06:00,29.0,24.0,30.22,South,169,0.0,-999.0,81,-99.99,,,0.00,weatherlink.com 1.10,2013-03-19 04:06:00,
2013-03-19 00:21:00,28.7,24.0,30.21,SSE,164,0.0,-999.0,82,-99.99,,,0.00,weatherlink.com 1.10,2013-03-19 04:21:00,
2013-03-19 00:36:00,28.7,25.0,30.20,SE,128,0.0,-999.0,84,-99.99,,,0.02,weatherlink.com 1.10,2013-03-19 04:36:00,
2013-03-19 00:51:00,28.5,25.0,30.18,SE,131,0.0,-999.0,85,-99.99,,,0.02,weatherlink.com 1.10,2013-03-19 04:51:00,
2013-03-19 01:36:00,28.2,25.0,30.16,SE,124,1.0,-999.0,86,-99.99,,,0.06,weatherlink.com 1.10,2013-03-19 05:36:00,
2013-03-19 01:51:00,28.1,25.0,30.15,SE,127,0.0,-999.0,87,-99.99,,,0.07,weatherlink.com 1.10,2013-03-19 05:51:00,
2013-03-19 02:06:00,27.9,25.0,30.13,ESE,117,0.0,-999.0,87,-99.99,,,0.08,weatherlink.com 1.10,2013-03-19 06:06:00,
2013-03-19 02:21:00,27.9,25.0,30.12,ENE,76,0.0,-999.0,87,-99.99,,,0.10,weatherlink.com 1.10,2013-03-19 06:21:00,
2013-03-19 02:36:00,27.8,25.0,30.11,East,79,1.0,-999.0,88,-99.99,,,0.11,weatherlink.com 1.10,2013-03-19 06:36:00,
2013-03-19 02:51:00,27.8,25.0,30.10,East,90,0.0,-999.0,88,-99.99,,,0.12,weatherlink.com 1.10,2013-03-19 06:51:00,
2013-03-19 03:06:00,27.8,25.0,30.09,East,92,1.0,-999.0,89,-99.99,,,0.14,weatherlink.com 1.10,2013-03-19 07:06:00,
2013-03-19 03:21:00,27.8,25.0,30.09,East,92,0.0,-999.0,89,-99.99,,,0.16,weatherlink.com 1.10,2013-03-19 07:21:00,
2013-03-19 03:36:00,27.8,25.0,30.09,East,95,0.0,-999.0,89,-99.99,,,0.17,weatherlink.com 1.10,2013-03-19 07:36:00,
2013-03-19 03:51:00,27.9,25.0,30.08,East,96,0.0,-999.0,90,-99.99,,,0.18,weatherlink.com 1.10,2013-03-19 07:51:00,
2013-03-19 04:06:00,27.9,-99.9,30.07,East,97,0.0,-999.0,-999,-99.99,,,0.20,weatherlink.com 1.10,2013-03-19 08:06:00,
2013-03-19 04:21:00,28.1,26.0,30.07,East,95,1.0,-999.0,91,-99.99,,,0.21,weatherlink.com 1.10,2013-03-19 08:21:00,
2013-03-19 04:36:00,28.2,26.0,30.06,East,92,1.0,-999.0,91,-99.99,,,0.22,weatherlink.com 1.10,2013-03-19 08:36:00,
2013-03-19 04:51:00,28.4,26.0,30.05,East,93,1.0,-999.0,92,-99.99,,,0.23,weatherlink.com 1.10,2013-03-19 08:51:00,
2013-03-19 05:06:00,28.5,27.0,30.04,East,83,0.0,-999.0,95,-99.99,,,0.24,weatherlink.com 1.10,2013-03-19 09:06:00,
2013-03-19 05:36:00,29.0,28.0,30.04,ESE,104,2.0,-999.0,97,-99.99,,,0.26,weatherlink.com 1.10,2013-03-19 09:36:00,
2013-03-19 05:51:00,29.4,29.0,30.04,ESE,116,0.0,-999.0,97,-99.99,,,0.27,weatherlink.com 1.10,2013-03-19 09:51:00,
2013-03-19 06:06:00,29.4,29.0,30.04,ESE,109,0.0,-999.0,98,-99.99,,,0.27,weatherlink.com 1.10,2013-03-19 10:06:00,
2013-03-19 06:21:00,29.5,29.0,30.04,NE,52,0.0,-999.0,98,-99.99,,,0.28,weatherlink.com 1.10,2013-03-19 10:21:00,
2013-03-19 06:36:00,29.7,30.0,30.02,East,90,0.0,-999.0,99,-99.99,,,0.28,weatherlink.com 1.10,2013-03-19 10:36:00,
2013-03-19 06:51:00,29.7,30.0,30.02,ESE,110,0.0,-999.0,99,-99.99,,,0.29,weatherlink.com 1.10,2013-03-19 10:51:00,
2013-03-19 07:06:00,29.8,30.0,30.01,ESE,121,0.0,-999.0,99,-99.99,,,0.29,weatherlink.com 1.10,2013-03-19 11:06:00,
2013-03-19 07:21:00,30.0,30.0,30.00,East,99,1.0,-999.0,99,-99.99,,,0.31,weatherlink.com 1.10,2013-03-19 11:21:00,
2013-03-19 07:36:00,30.1,30.0,30.00,East,82,0.0,-999.0,99,-99.99,,,0.31,weatherlink.com 1.10,2013-03-19 11:36:00,
2013-03-19 07:51:00,30.3,30.0,29.99,East,83,0.0,-999.0,100,-99.99,,,0.32,weatherlink.com 1.10,2013-03-19 11:51:00,
2013-03-19 08:06:00,30.6,31.0,29.98,ESE,112,0.0,-999.0,100,-99.99,,,0.33,weatherlink.com 1.10,2013-03-19 12:06:00,
2013-03-19 08:21:00,30.9,31.0,29.98,ESE,120,1.0,-999.0,100,-99.99,,,0.34,weatherlink.com 1.10,2013-03-19 12:21:00,
2013-03-19 08:36:00,31.0,31.0,29.97,East,88,0.0,-999.0,100,-99.99,,,0.36,weatherlink.com 1.10,2013-03-19 12:36:00,
2013-03-19 08:51:00,31.5,32.0,29.96,SE,124,1.0,-999.0,100,-99.99,,,0.37,weatherlink.com 1.10,2013-03-19 12:51:00,
2013-03-19 09:06:00,31.8,32.0,29.95,East,100,0.0,-999.0,100,-99.99,,,0.38,weatherlink.com 1.10,2013-03-19 13:06:00,
2013-03-19 09:51:00,32.4,32.0,29.93,East,88,0.0,-999.0,100,-99.99,,,0.41,weatherlink.com 1.10,2013-03-19 13:51:00,
2013-03-19 10:06:00,32.7,33.0,29.93,ESE,117,0.0,-999.0,100,-99.99,,,0.41,weatherlink.com 1.10,2013-03-19 14:06:00,
2013-03-19 10:21:00,32.9,33.0,29.92,ESE,102,0.0,-999.0,100,-99.99,,,0.41,weatherlink.com 1.10,2013-03-19 14:21:00,
2013-03-19 10:51:00,33.4,33.0,29.89,East,80,0.0,-999.0,100,-99.99,,,0.43,weatherlink.com 1.10,2013-03-19 14:51:00,
2013-03-19 11:06:00,33.7,34.0,29.89,ESE,112,0.0,-999.0,100,-99.99,,,0.44,weatherlink.com 1.10,2013-03-19 15:06:00,
2013-03-19 11:21:00,34.0,34.0,29.87,East,89,0.0,-999.0,100,-99.99,,,0.44,weatherlink.com 1.10,2013-03-19 15:21:00,
2013-03-19 11:36:00,34.0,34.0,29.87,SSE,161,0.0,-999.0,100,-99.99,,,0.44,weatherlink.com 1.10,2013-03-19 15:36:00,
2013-03-19 11:51:00,34.0,34.0,29.86,East,97,0.0,-999.0,100,-99.99,,,0.45,weatherlink.com 1.10,2013-03-19 15:51:00,
2013-03-19 12:06:00,34.1,34.0,29.84,ENE,64,2.0,-999.0,100,-99.99,,,0.45,weatherlink.com 1.10,2013-03-19 16:06:00,
2013-03-19 12:21:00,34.3,34.0,29.82,South,184,0.0,-999.0,99,-99.99,,,0.45,weatherlink.com 1.10,2013-03-19 16:21:00,
2013-03-19 12:37:00,34.1,34.0,29.83,ESE,109,2.0,-999.0,99,-99.99,,,0.45,weatherlink.com 1.10,2013-03-19 16:37:00,
2013-03-19 12:51:00,34.3,34.0,29.81,ESE,110,0.0,-999.0,98,-99.99,,,0.45,weatherlink.com 1.10,2013-03-19 16:51:00,
2013-03-19 13:07:00,34.1,34.0,29.80,ESE,114,4.0,-999.0,98,-99.99,,,0.45,weatherlink.com 1.10,2013-03-19 17:07:00,
2013-03-19 13:21:00,34.0,33.0,29.79,ESE,117,3.0,-999.0,97,-99.99,,,0.46,weatherlink.com 1.10,2013-03-19 17:21:00,
2013-03-19 13:36:00,34.0,33.0,29.78,ESE,104,3.0,-999.0,97,-99.99,,,0.46,weatherlink.com 1.10,2013-03-19 17:36:00,
2013-03-19 13:51:00,33.8,33.0,29.75,SSW,196,1.0,-999.0,97,-99.99,,,0.46,weatherlink.com 1.10,2013-03-19 17:51:00,
2013-03-19 14:06:00,33.4,33.0,29.76,East,82,0.0,-999.0,97,-99.99,,,0.47,weatherlink.com 1.10,2013-03-19 18:06:00,
2013-03-19 14:21:00,33.2,33.0,29.79,NNE,32,1.0,-999.0,97,-99.99,,,0.47,weatherlink.com 1.10,2013-03-19 18:21:00,
2013-03-19 14:35:00,33.1,33.0,29.80,North,7,2.0,-999.0,98,-99.99,,,0.48,weatherlink.com 1.10,2013-03-19 18:35:00,
2013-03-19 14:51:00,32.9,32.0,29.80,NE,38,0.0,-999.0,98,-99.99,,,0.49,weatherlink.com 1.10,2013-03-19 18:51:00,
2013-03-19 15:06:00,32.8,33.0,29.78,NE,40,1.0,-999.0,99,-99.99,,,0.52,weatherlink.com 1.10,2013-03-19 19:06:00,
2013-03-19 15:21:00,32.8,33.0,29.77,East,93,4.0,-999.0,99,-99.99,,,0.55,weatherlink.com 1.10,2013-03-19 19:21:00,
2013-03-19 15:36:00,32.8,33.0,29.76,ENE,64,2.0,-999.0,99,-99.99,,,0.57,weatherlink.com 1.10,2013-03-19 19:36:00,
2013-03-19 15:51:00,32.8,33.0,29.74,ENE,58,0.0,-999.0,100,-99.99,,,0.60,weatherlink.com 1.10,2013-03-19 19:51:00,
2013-03-19 16:06:00,32.5,33.0,29.71,ESE,119,3.0,-999.0,100,-99.99,,,0.63,weatherlink.com 1.10,2013-03-19 20:06:00,
2013-03-19 16:21:00,32.8,33.0,29.68,East,83,0.0,-999.0,100,-99.99,,,0.65,weatherlink.com 1.10,2013-03-19 20:21:00,
2013-03-19 16:36:00,33.2,33.0,29.67,ENE,75,2.0,-999.0,100,-99.99,,,0.65,weatherlink.com 1.10,2013-03-19 20:36:00,
2013-03-19 16:51:00,33.1,33.0,29.67,East,86,0.0,-999.0,100,-99.99,,,0.66,weatherlink.com 1.10,2013-03-19 20:51:00,
2013-03-19 17:06:00,32.9,33.0,29.67,East,99,0.0,-999.0,100,-99.99,,,0.67,weatherlink.com 1.10,2013-03-19 21:06:00,
2013-03-19 17:21:00,32.8,33.0,29.66,NE,56,0.0,-999.0,100,-99.99,,,0.67,weatherlink.com 1.10,2013-03-19 21:21:00,
2013-03-19 17:36:00,32.7,33.0,29.67,East,80,0.0,-999.0,100,-99.99,,,0.67,weatherlink.com 1.10,2013-03-19 21:36:00,
2013-03-19 17:51:00,32.5,33.0,29.68,East,80,0.0,-999.0,100,-99.99,,,0.67,weatherlink.com 1.10,2013-03-19 21:51:00,
2013-03-19 18:06:00,32.4,32.0,29.67,NNE,16,0.0,-999.0,100,-99.99,,,0.67,weatherlink.com 1.10,2013-03-19 22:06:00,
2013-03-19 18:21:00,32.1,32.0,29.67,NE,52,0.0,-999.0,100,-99.99,,,0.67,weatherlink.com 1.10,2013-03-19 22:21:00,
2013-03-19 19:06:00,31.6,32.0,29.66,ENE,58,0.0,-999.0,100,-99.99,,,0.67,weatherlink.com 1.10,2013-03-19 23:06:00,
2013-03-19 19:21:00,31.3,31.0,29.66,ENE,58,0.0,-999.0,100,-99.99,,,0.67,weatherlink.com 1.10,2013-03-19 23:21:00,
2013-03-19 19:37:00,31.2,31.0,29.67,ENE,58,0.0,-999.0,100,-99.99,,,0.68,weatherlink.com 1.10,2013-03-19 23:37:00,
2013-03-19 19:51:00,30.9,31.0,29.66,ENE,58,0.0,-999.0,100,-99.99,,,0.68,weatherlink.com 1.10,2013-03-19 23:51:00,
2013-03-19 20:07:00,30.7,31.0,29.67,ENE,58,0.0,-999.0,100,-99.99,,,0.68,weatherlink.com 1.10,2013-03-20 00:07:00,
2013-03-19 20:21:00,30.3,30.0,29.66,ENE,58,0.0,-999.0,100,-99.99,,,0.69,weatherlink.com 1.10,2013-03-20 00:21:00,
2013-03-19 20:51:00,29.5,30.0,29.67,ENE,58,0.0,-999.0,100,-99.99,,,0.69,weatherlink.com 1.10,2013-03-20 00:51:00,
2013-03-19 21:06:00,29.4,29.0,29.68,ENE,58,0.0,-999.0,100,-99.99,,,0.69,weatherlink.com 1.10,2013-03-20 01:06:00,
2013-03-19 21:21:00,29.3,29.0,29.70,ENE,58,0.0,-999.0,100,-99.99,,,0.69,weatherlink.com 1.10,2013-03-20 01:21:00,
2013-03-19 21:36:00,28.8,29.0,29.70,ENE,58,0.0,-999.0,100,-99.99,,,0.69,weatherlink.com 1.10,2013-03-20 01:36:00,
2013-03-19 21:51:00,28.5,28.0,29.71,ENE,58,0.0,-999.0,99,-99.99,,,0.69,weatherlink.com 1.10,2013-03-20 01:51:00,
2013-03-19 22:07:00,28.2,28.0,29.71,ENE,58,0.0,-999.0,99,-99.99,,,0.70,weatherlink.com 1.10,2013-03-20 02:07:00,
2013-03-19 22:21:00,27.8,27.0,29.71,ENE,58,0.0,-999.0,98,-99.99,,,0.70,weatherlink.com 1.10,2013-03-20 02:21:00,
2013-03-19 22:37:00,27.2,27.0,29.71,ENE,58,0.0,-999.0,97,-99.99,,,0.70,weatherlink.com 1.10,2013-03-20 02:37:00,
2013-03-19 22:51:00,26.6,26.0,29.71,ENE,58,0.0,-999.0,96,-99.99,,,0.70,weatherlink.com 1.10,2013-03-20 02:51:00,
2013-03-19 23:06:00,26.3,25.0,29.71,ENE,58,0.0,-999.0,95,-99.99,,,0.70,weatherlink.com 1.10,2013-03-20 03:06:00,
2013-03-19 23:21:00,26.1,25.0,29.71,ENE,58,0.0,-999.0,94,-99.99,,,0.70,weatherlink.com 1.10,2013-03-20 03:21:00,
2013-03-19 23:36:00,26.0,25.0,29.70,ENE,58,0.0,-999.0,94,-99.99,,,0.70,weatherlink.com 1.10,2013-03-20 03:36:00,
2013-03-19 23:51:00,25.7,24.0,29.70,ENE,58,0.0,-999.0,93,-99.99,,,0.70,weatherlink.com 1.10,2013-03-20 03:51:00,